Dubuque, IA

2:26 PM CDT on October 22, 2019 (GMT -0500)
Dubuque Regional

Weather History for KDBQ - June, 2019

Change the Weather History Date:

Friday, June 7, 2019

  Actual Average Record
Temperature  
Mean Temperature 72 °F 66 °F  
Max Temperature 82 °F 76 °F 94 °F (1963)
Min Temperature 61 °F 56 °F 40 °F (1897)
Degree Days  
Heating Degree Days 0 2  
Month to date heating degree days 5 18  
Since 1 June heating degree days 5 18  
Since 1 July heating degree days 7407 7064  
Cooling Degree Days 6 3  
Month to date cooling degree days 27 19  
Year to date cooling degree days 53 56  
Since 1 June cooling degree days 27 19  
Growing Degree Days 22 (Base 50)    
Moisture  
Dew Point 60 °F    
Average Humidity 75    
Maximum Humidity 100    
Minimum Humidity 45    
Precipitation  
Precipitation 0.00 in 0.15 in 2.04 in (1969)
Month to date precipitation 2.03 1.05  
Year to date precipitation 19.27 13.92  
Snow  
Snow 0.00 in 0.00 in - ()
Month to date snowfall 0.0 0.0  
Since 1 June snowfall 0.0 0.0  
Since 1 July snowfall 55.2 41.9  
Snow Depth 0.00 in    
Sea Level Pressure  
Sea Level Pressure 29.95 in    
Wind  
Wind Speed 6 mph ()    
Max Wind Speed 16 mph    
Max Gust Speed 22 mph    
Visibility 6.8 miles    
Events Fog    
T = Trace of Precipitation, MM = Missing Value Source: Averaged Metar Reports

Daily Weather History Graph

Daily Weather History Graph

Search for Another Location

Airport or City:

Astronomy

Jun. 07, 2019 Rise Set
Actual Time 5:26 AM CDT 8:37 PM CDT
Civil Twilight 4:51 AM CDT 9:11 PM CDT
Nautical Twilight 4:07 AM CDT 9:56 PM CDT
Astronomical Twilight 3:14 AM CDT 10:49 PM CDT
Moon 9:44 AM CDT (6/7) No Moon Set
Length of Visible Light 16h 19m
Length of Day
15h 11m
Waxing Crescent, 22% of the Moon is Illuminated
Jun 7
Waxing Crescent
Jun 10
First Quarter
Jun 17
Full
Jun 25
Last Quarter
Jul 2
New

Hourly Weather History & Observations

Time (CDT) Temp. Heat Index Dew Point Humidity Pressure Visibility Wind Dir Wind Speed Gust Speed Precip Events Conditions
12:53 AM 69.1 °F - 64.9 °F 87% 29.91 in 9.0 mi East 8.1 mph - N/A   Clear
1:53 AM 66.9 °F - 64.9 °F 93% 29.90 in 7.0 mi East 6.9 mph - N/A   Clear
2:53 AM 66.0 °F - 64.0 °F 93% 29.90 in 5.0 mi NE 6.9 mph - N/A   Clear
3:40 AM 63.0 °F - 62.1 °F 97% 29.92 in 1.5 mi Calm Calm - N/A   Clear
3:51 AM 62.6 °F - 62.6 °F 100% 29.92 in 3.0 mi Calm Calm - N/A   Clear
3:53 AM 63.0 °F - 62.1 °F 97% 29.91 in 4.0 mi Calm Calm - N/A   Clear
4:53 AM 64.0 °F - 60.1 °F 87% 29.92 in 9.0 mi Calm Calm - N/A   Clear
5:14 AM 62.1 °F - 60.1 °F 93% 29.94 in 1.5 mi NNE 5.8 mph - N/A   Partly Cloudy
5:16 AM 62.1 °F - 60.1 °F 93% 29.94 in 0.5 mi NNE 5.8 mph - N/A Fog Fog
5:24 AM 62.1 °F - 61.0 °F 96% 29.94 in 0.2 mi NNE 4.6 mph - N/A Fog Fog
5:53 AM 61.0 °F - 60.1 °F 97% 29.94 in 0.2 mi NNE 5.8 mph - N/A Fog Fog
6:47 AM 62.6 °F - 60.8 °F 94% 29.96 in 1.0 mi NNE 5.8 mph - N/A   Mist
6:53 AM 62.1 °F - 61.0 °F 96% 29.96 in 1.8 mi NNE 5.8 mph - N/A   Scattered Clouds
7:07 AM 63.0 °F - 62.1 °F 97% 29.97 in 2.5 mi NNE 5.8 mph - N/A   Clear
7:15 AM 63.0 °F - 62.1 °F 97% 29.97 in 4.0 mi NE 5.8 mph - N/A   Clear
7:53 AM 66.9 °F - 62.1 °F 84% 29.97 in 9.0 mi NE 5.8 mph - N/A   Clear
8:53 AM 70.0 °F - 61.0 °F 73% 29.97 in 10.0 mi East 6.9 mph - N/A   Clear
9:53 AM 72.0 °F - 62.1 °F 71% 29.97 in 10.0 mi ESE 8.1 mph - N/A   Clear
10:53 AM 73.9 °F - 63.0 °F 68% 29.97 in 10.0 mi East 8.1 mph - N/A   Partly Cloudy
11:53 AM 75.9 °F - 62.1 °F 62% 29.98 in 10.0 mi East 12.7 mph - N/A   Partly Cloudy
12:53 PM 77.0 °F - 60.1 °F 56% 29.96 in 10.0 mi ESE 10.4 mph - N/A   Clear
1:53 PM 80.1 °F 80.9 °F 60.1 °F 50% 29.95 in 10.0 mi East 13.8 mph 18.4 mph N/A   Clear
2:53 PM 80.1 °F 80.7 °F 59.0 °F 48% 29.95 in 10.0 mi ESE 13.8 mph 19.6 mph N/A   Clear
3:53 PM 81.0 °F 81.6 °F 60.1 °F 49% 29.94 in 10.0 mi East 12.7 mph 20.7 mph N/A   Clear
4:53 PM 81.0 °F 81.1 °F 57.9 °F 45% 29.94 in 10.0 mi ESE 11.5 mph - N/A   Clear
5:53 PM 81.0 °F 81.3 °F 59.0 °F 47% 29.93 in 10.0 mi East 12.7 mph - N/A   Clear
6:53 PM 80.1 °F 80.6 °F 57.9 °F 47% 29.93 in 10.0 mi ESE 9.2 mph - N/A   Clear
7:53 PM 77.0 °F - 57.9 °F 52% 29.94 in 10.0 mi East 6.9 mph - N/A   Clear
8:53 PM 73.0 °F - 55.0 °F 53% 29.95 in 10.0 mi East 8.1 mph - N/A   Clear
9:53 PM 70.0 °F - 54.0 °F 57% 29.97 in 10.0 mi East 6.9 mph - N/A   Clear
10:53 PM 66.9 °F - 54.0 °F 63% 29.98 in 10.0 mi East 6.9 mph - N/A   Clear
11:53 PM 66.9 °F - 55.0 °F 66% 29.97 in 10.0 mi East 6.9 mph - N/A   Clear